This demonstration page uses our WeatherBlox Daily Observations layout. Learn more.

Left ArrowRight Arrow

38.20091, -84.87328

Hourly Observations for January 19, 2015

Temp ( °F °C ) Dew Point ( °F °C ) Humidity (%) Winds ( mph kmh ) Pressure ( in mb ) Visibility ( mi km ) Precip ( " mm )
12:53 am 00:53 Clear 32 0 24 -4.4 73 73 N 5 7 30.04 1017 10 16 0.00 0.00
1:53 am 01:53 Clear 28 -2.2 22 -5.6 78 78 WSW 3 6 30.04 1017 10 16 0.00 0.00
2:53 am 02:53 Clear 27 -2.8 22 -5.6 81 81 Calm 30.05 1018 10 16 0.00 0.00
3:53 am 03:53 Clear 25 -3.9 22 -5.6 88 88 SW 3 6 30.05 1018 10 16 0.00 0.00
4:53 am 04:53 Clear 25 -3.9 21 -6.1 85 85 Calm 30.05 1018 10 16 0.00 0.00
5:53 am 05:53 Clear 23 -5 20 -6.7 88 88 Calm 30.05 1018 10 16 0.00 0.00
6:53 am 06:53 Clear 24 -4.4 21 -6.1 88 88 Calm 30.04 1017 10 16 0.00 0.00
7:53 am 07:53 Clear 26 -3.3 22 -5.6 84 84 Calm 30.04 1017 10 16 0.00 0.00
8:53 am 08:53 Sunny 28 -2.2 24 -4.4 85 85 Calm 30.04 1017 10 16 0.00 0.00
9:53 am 09:53 Sunny 35 1.7 27 -2.8 72 72 Calm 30.04 1017 10 16 0.00 0.00
10:53 am 10:53 Sunny 42 5.6 28 -2.2 58 58 ESE 7 11 30.03 1017 10 16 0.00 0.00
11:53 am 11:53 Sunny 47 8.3 27 -2.8 46 46 SE 5 7 30.01 1016 10 16 0.00 0.00
12:53 pm 12:53 Sunny 50 10 27 -2.8 41 41 Calm 29.97 1015 10 16 0.00 0.00
1:53 pm 13:53 Sunny 52 11.1 26 -3.3 37 37 Calm 29.94 1014 10 16 0.00 0.00
2:53 pm 14:53 Sunny 54 12.2 26 -3.3 34 34 Calm 29.92 1013 10 16 0.00 0.00
3:53 pm 15:53 Sunny 54 12.2 27 -2.8 35 35 ENE 5 7 29.92 1013 10 16 0.00 0.00
4:53 pm 16:53 Sunny 54 12.2 26 -3.3 34 34 Calm 29.93 1014 10 16 0.00 0.00
5:53 pm 17:53 Clear 49 9.4 27 -2.8 43 43 ESE 5 7 29.93 1013 10 16 0.00 0.00
6:53 pm 18:53 Clear 38 3.3 27 -2.8 65 65 Calm 29.95 1014 10 16 0.00 0.00
7:53 pm 19:53 Clear 35 1.7 26 -3.3 70 70 Calm 29.94 1014 10 16 0.00 0.00
8:53 pm 20:53 Clear 33 0.6 26 -3.3 75 75 Calm 29.93 1014 10 16 0.00 0.00
9:53 pm 21:53 Clear 32 0 26 -3.3 79 79 Calm 29.91 1013 10 16 0.00 0.00
10:53 pm 22:53 Clear 31 -0.6 25 -3.9 79 79 Calm 29.90 1013 10 16 0.00 0.00
11:53 pm 23:53 Clear 29 -1.7 24 -4.4 82 82 Calm 29.91 1013 10 16 0.00 0.00

Powered by AerisWeather